Location: Woodhurst
(52.3667°N, 0.0667°W)
Time: 18:54:26
(UTC+00:00)

USA 229 - Pass Details

Date: 19 May 2025
Orbit: 872 x 1339 km, 63.4° (Epoch: 20 June)

Event Time Altitude Azimuth Distance (km) Brightness Sun altitude
Exits shadow 23:20:50 27° 171° (S) 1,724 4.2 -17.2°
Maximum altitude 23:23:36 43° 121° (ESE) 1,360 4.0 -17.3°
Drops below altitude 10° 23:29:53 10° 52° (NE) 2,895 6.4 -17.4°
Sets 23:32:48 0° 47° (NE) 3,930 7.2 -17.5°
